Location: Brunembert
(50.7122°N, 1.8935°E)
Time: 04:05:26
(UTC+00:00)

Cosmos 2219 - Pass Details

Date: 22 April 2021
Orbit: 834 x 859 km, 71.1° (Epoch: 06 May)

Event Time Altitude Azimuth Distance (km) Brightness Sun altitude
Rises 20:50:18 0° 210° (SSW) 3,371 6.2 -15.6°
Reaches altitude 10° 20:52:43 10° 211° (SSW) 2,441 5.5 -15.9°
Maximum altitude 20:58:20 82° 300° (WNW) 849 3.2 -16.5°
Drops below altitude 10° 21:04:00 10° 28° (NNE) 2,462 5.8 -17.1°
Sets 21:06:27 0° 30° (NNE) 3,403 6.6 -17.4°
